sat.trackr.live / text

‹ back to catalog

STARLINK-6119

NORAD 56125 · 2023-046AK

PAYLOAD ACTIVE UNKNOWN

§ Identity

Operator
Country
US
Launch date
2023-03-29
Launch site
AFETR
Launch vehicle
Mass (kg)
RCS (m²)

Purposes: comms

External: N2YO · Heavens-Above · Gunter

§ Orbital elements

Epoch: 2026-05-25T04:23:48.585408Z

Period
94.27 min
Inclination
43.0043°
Eccentricity
0.0000794
Mean motion
15.27575384 rev/d
Perigee alt
482.5 km
Apogee alt
483.6 km
Semi-major
6,861.2 km
B*
1.7053e-5
RAAN
75.4377°
Arg perigee
274.7492°
Mean anomaly
85.3269°
Rev number
17,389

§ Raw data

STARLINK-61191 56125U 23046AK  26145.18320122  .00000207  00000+0  17053-4 0  99992 56125  43.0043  75.4377 0000794 274.7492  85.3269 15.27575384173891

JSON: /api/v1/satellites/56125 · /tle

For live sub-satellite position, see the globe view (requires WebGL).

§ Visibility from observer

Set your observer location to see the next 7 days of passes ≥ 10°. The values pass through the URL so the page stays shareable.

No JS? Fill the form by hand. The geolocation button needs JavaScript.